Regional Weather Roundup
Issued by NWS

Home | Current Version | Previous Version | Graphics & Text | Print | Product List | Glossary On
Versions: 1 2 3 4 5 6 7 8 9 10 11 12 13 14 15 16 17 18 19 20 21 22 23 24 25 26 27 28 29 30 31 32 33 34 35 36 37 38 39 40 41 42 43 44 45 46 47 48 49 50
000
ASUS43 KLOT 210912
RWRIL

ILLINOIS REGIONAL WEATHER ROUNDUP
NATIONAL WEATHER SERVICE CHICAGO/ROMEOVILLE IL
300 AM CST TUE FEB 21 2017

NOTE: "FAIR" INDICATES FEW OR NO CLOUDS BELOW 12,000 FEET WITH NO
SIGNIFICANT WEATHER AND/OR OBSTRUCTIONS TO VISIBILITY.

* THESE STATIONS ARE NOT UNDER NWS QUALITY CONTROL. THEY ALSO MAY NOT
  REPORT WEATHER SUCH AS PRECIPITATION OR FOG.

ILZ001-002-007-009-015-016-024-211000-
NORTHWEST ILLINOIS

CITY           SKY/WX    TMP DP  RH WIND       PRES   REMARKS
MOLINE         CLOUDY    58  55  90 NW3       29.90S
STERLING*      CLOUDY    56  55  97 VRB6      29.89S
SAVANNA*       CLOUDY    52  52  99 S3        29.88S FOG
$$

ILZ003-004-008-010-011-017-018-211000-
NORTH CENTRAL ILLINOIS

CITY           SKY/WX    TMP DP  RH WIND       PRES   REMARKS
ROCKFORD       LGT RAIN  56  54  93 S8        29.90S
FREEPORT*      CLOUDY    53  53  98 S10       29.87F
ROCHELLE*      LGT RAIN  53  52  99 S7        29.91S
DE KALB*       DRIZZLE   52  51  97 S5        29.92R
PERU*          LGT RAIN  54  52  94 S8        29.92S
$$

ILZ005-006-012>014-019>023-211000-
NORTHEAST ILLINOIS

CITY           SKY/WX    TMP DP  RH WIND       PRES   REMARKS
CHICAGO-OHARE  LGT RAIN  57  48  72 SW8       29.90F
CHICAGO-MIDWAY CLOUDY    58  46  64 SW9       29.92S
AURORA         CLOUDY    54  50  86 S3        29.91F
LANSING*       CLOUDY    55  49  80 SW5       29.92F
JOLIET*        CLOUDY    58  51  77 CALM      29.92R
WAUKEGAN       LGT RAIN  55  50  83 SW8       29.87F
DUPAGE AIRPORT LGT RAIN  54  48  80 S5        29.91S
KANKAKEE*      CLOUDY    54  47  76 S6        29.93F
WHEELING       LGT RAIN  57  48  72 S8        29.92F
MORRIS*        CLOUDY    53  49  85 CALM      29.91R
ROMEOVILLE*    CLOUDY    54  50  87 S6        29.92S
NORTHERLY ISL    N/A     58  46  64 SW8         N/A
$$

LMZ740>746-211000-
SOUTHERN LAKE MICHIGAN

STATION/POSITION SKY/WX   TEMP    WIND        PRES    VSBY  WAVE
                          AIR SEA DIR/SP/G                  HT/PER
                          (F)     (DEG/KT/KT) (MB)    (MI)  (FT/S)
HARRISON CRIB              60     210/ 20/ 24   N/A
BURNHAM HARBOR             58     180/  5/ 14   N/A
CALUMET HARBOR             57     190/  6/ 10 1012.6F
BURNS HARBOR               56     190/ 11/ 20 1013.5
MICHIGAN CITY              57     150/ 15/ 19   N/A
$$

ILZ025>027-034>036-040-047-049-050-058-095>099-211000-
WEST-CENTRAL ILLINOIS

CITY           SKY/WX    TMP DP  RH WIND       PRES   REMARKS
QUINCY         FOG       58  58 100 S7        29.91F VSB 1/4
GALESBURG*     LGT RAIN  56  56 100 CALM      29.91S
MACOMB*        LGT RAIN  56  56 100 S3        29.93S
JACKSONVILLE*  DRIZZLE   57  57  99 W5        29.93F
PITTSFIELD*    DRZL/FOG  59  59 100 CALM      29.93F VSB 3/4
$$

ILZ028>032-037-038-041>044-048-051>054-059>061-211000-
CENTRAL ILLINOIS

CITY           SKY/WX    TMP DP  RH WIND       PRES   REMARKS
PONTIAC        HVY RAIN  57  55  92 SW6       29.94S
BLOOMINGTON    CLOUDY    59  52  77 SW9       29.94F
DECATUR        CLOUDY    58  49  72 SW6       29.92F
PEORIA         LGT RAIN  56  56 100 CALM      29.92F
LACON*         DRIZZLE   55  55 100 SE3       29.91F
LINCOLN*       LGT RAIN  60  56  89 CALM      29.93F
SPRINGFIELD    LGT RAIN  58  55  90 W3        29.93F FOG
TAYLORVILLE    CLOUDY    58  51  76 SW7       29.94R
$$

ILZ033-039-045-046-055>057-062-063-211000-
EAST-CENTRAL ILLINOIS

CITY           SKY/WX    TMP DP  RH WIND       PRES   REMARKS
CHAMPAIGN      CLOUDY    57  48  72 S3        29.92F
RANTOUL*       CLOUDY    56  50  80 CALM      29.94R
MATTOON        CLOUDY    58  49  72 S8        29.92F
PARIS*         CLOUDY    55  47  76 SE6       29.95F
$$

ILZ079-100>102-211000-
SOUTHWEST ILLINOIS

CITY           SKY/WX    TMP DP  RH WIND       PRES   REMARKS
ALTON          CLOUDY    59  57  92 SW3       29.94S
BELLEVILLE     LGT RAIN  57  57  99 CALM      29.92S
CAHOKIA*       LGT RAIN  60  57  89 CALM      29.93F
SPARTA*        CLOUDY    59  51  77 CALM      29.95F
$$

ILZ064>066-069>071-074>076-080>082-084>086-088>090-092>094-211000-
SOUTH-CENTRAL ILLINOIS

CITY           SKY/WX    TMP DP  RH WIND       PRES   REMARKS
CARBONDALE     CLOUDY    59  51  75 S5        29.92F
CAIRO*         CLOUDY    58  50  76 CALM      29.92S
EFFINGHAM*     CLOUDY    57  50  77 SE3       29.96S
MARION         CLOUDY    63  50  63 SW3       29.94R
MT. VERNON     CLOUDY    53  49  86 CALM      29.94S
CENTRALIA*     MOCLDY    60  52  74 W6        29.94R
SALEM*         CLOUDY    62  50  66 W7        29.94S
METROPOLIS*    CLOUDY    56  49  79 CALM      29.94S
$$

ILZ067-068-072-073-078-083-087-091-211000-
SOUTHEAST ILLINOIS

CITY           SKY/WX    TMP DP  RH WIND       PRES   REMARKS
LAWRENCEVILLE  PTCLDY    52  45  77 S6        29.96S
FLORA*         PTCLDY    57  49  76 CALM      29.95S
FAIRFIELD*     MOCLDY    58  49  72 CALM      29.93F
HARRISBURG*    PTCLDY    58  50  76 SE6       29.94F
ROBINSON*      CLOUDY    47  45  93 CALM      29.96F
CARMI*         CLOUDY    53  49  87 CALM      29.94S FOG
$$

ABBREVIATIONS USED IN REMARKS
   TC - TEMPERATURE IN CELSIUS
  WCI - WIND CHILL INDEX
   HX - HEAT INDEX
  VSB - VISIBILITY
$$




USA.gov is the U.S. government's official web portal to all federal, state and local government web resources and services.